Погода в Шумихе

Россия / Курганская область     55°13′43″N   63°17′08″E
темп.,
°C
ветер,
м/с
пор.,
м/с
влажн.,
%
обл.,
%
осадки,
мм/ч
давл.,
гПа
погр.,
м
27 февраля, сб
сб2723:00−29ю47940 0.0 102993
02:00−30ю47947 0.0 1027102
05:00−30ю47943 0.0 1027110
08:00−29ююв599731 0.0 1026151
11:00−24ююв5109549 0.0 1024261
14:00−20юв61196100 0.0 1021361
17:00−16юв71394100 0.6 1018624
20:00−12ююв71393100 0.7 1015880
28 февраля, вс
вс2823:00−12ююв71393100 1.1 1013687
02:00−12юв71293100 0.7 1011569
05:00−12вюв61193100 0.9 1009405
08:00−12вюв5109497 0.2 1008349
11:00−11в699399 0.5 1007419
14:00−9всв6993100 0.2 1006491
17:00−10всв6994100 0.5 1006513
20:00−12св599498 0.3 1007358
1 марта, пн
пн123:00−15ссв599599 0.3 1009279
02:00−16ссв489692 0.1 1010248
05:00−19с369993 0.1 1012128
08:00−20с3599100 0.0 1014107
11:00−17с3494100 0.1 1016309
14:00−15ссз3388100 0.0 1017395
17:00−15ссз2393100 0.1 1018312
20:00−18ссз1296100 0.0 101920
2 марта, вт
вт223:00−19ссз119897 0.1 101920
02:00−19сз129894 0.1 101820
05:00−19сз129890 0.1 101825
08:00−19зсз119791 0.1 101720
11:00−16з229285 0.1 1017234
14:00−14юз2387100 0.0 1016392
17:00−14юз2394100 0.1 1015105
20:00−19ююз349631 0.0 101532
3 марта, ср
ср323:00−20ююз449816 0.0 101557
02:00−21ю459820 0.0 101472
05:00−21ю479834 0.0 101393
08:00−19ю599590 0.0 1012207
11:00−15ю599295 0.0 1012280
14:00−12ю6109395 0.0 1011351
17:00−11ю6119298 0.1 1010434
20:00−9ю61293100 0.1 1009433